Time,TemperatureF,DewpointF,PressureIn,WindDirection,WindDirectionDegrees,WindSpeedMPH,WindSpeedGustMPH,Humidity,HourlyPrecipIn,Conditions,Clouds,dailyrainin,SolarRadiationWatts/m^2,SoftwareType,DateUTC
2013-07-25 11:12:00,65.0,-99.9,-100.00,West,279,3.0,3.0,0,-99.99,,,0.00,80.000000,,2013-07-25 18:12:00,
2013-07-25 11:42:00,75.0,-99.9,-100.00,West,279,5.0,5.0,0,-99.99,,,0.00,155.000000,,2013-07-25 18:42:00,
2013-07-25 12:12:00,75.0,-99.9,-100.00,West,279,5.0,5.0,0,-99.99,,,0.00,155.000000,,2013-07-25 19:12:00,
2013-07-25 12:23:00,75.0,-99.9,-100.00,West,279,5.0,5.0,0,-99.99,,,0.00,155.000000,,2013-07-25 19:23:00,
2013-07-25 12:33:00,75.0,-99.9,-100.00,West,279,5.0,5.0,0,-99.99,,,0.00,155.000000,,2013-07-25 19:33:00,
2013-07-25 12:42:00,85.0,-99.9,-100.00,West,279,2.0,5.0,0,0.00,,,0.00,161.000000,,2013-07-25 19:42:00,
2013-07-25 13:12:00,85.0,-99.9,-100.00,West,279,2.0,5.0,0,0.00,,,0.00,161.000000,,2013-07-25 20:12:00,
2013-07-25 13:22:00,85.0,-99.9,-100.00,West,279,2.0,5.0,0,0.00,,,0.00,161.000000,,2013-07-25 20:22:00,
2013-07-25 13:32:00,85.0,-99.9,-100.00,West,279,2.0,5.0,0,0.00,,,0.00,161.000000,,2013-07-25 20:32:00,
2013-07-25 13:42:00,89.0,-99.9,-100.00,West,279,2.0,2.0,0,0.00,,,0.00,590.000000,,2013-07-25 20:42:00,
2013-07-25 14:13:00,89.0,-99.9,-100.00,West,279,2.0,2.0,0,0.00,,,0.00,590.000000,,2013-07-25 21:13:00,
2013-07-25 14:22:00,89.0,-99.9,-100.00,West,279,2.0,2.0,0,0.00,,,0.00,590.000000,,2013-07-25 21:22:00,
2013-07-25 14:33:00,89.0,-99.9,-100.00,West,279,2.0,2.0,0,0.00,,,0.00,590.000000,,2013-07-25 21:33:00,
2013-07-25 14:42:00,93.0,-99.9,-100.00,SSE,151,2.0,2.0,0,0.00,,,0.00,1063.000000,,2013-07-25 21:42:00,
2013-07-25 15:12:00,93.0,-99.9,-100.00,SSE,151,2.0,2.0,0,0.00,,,0.00,1063.000000,,2013-07-25 22:12:00,
2013-07-25 15:22:00,93.0,-99.9,-100.00,SSE,151,2.0,2.0,0,0.00,,,0.00,1063.000000,,2013-07-25 22:22:00,
2013-07-25 15:33:00,93.0,-99.9,-100.00,SSE,151,2.0,2.0,0,0.00,,,0.00,1063.000000,,2013-07-25 22:33:00,
2013-07-25 15:42:00,89.0,-99.9,-100.00,West,279,3.0,3.0,0,0.00,,,0.00,1095.000000,,2013-07-25 22:42:00,
2013-07-25 16:12:00,89.0,-99.9,-100.00,West,279,3.0,3.0,0,0.00,,,0.00,1095.000000,,2013-07-25 23:12:00,
2013-07-25 16:22:00,89.0,-99.9,-100.00,West,279,3.0,3.0,0,0.00,,,0.00,1095.000000,,2013-07-25 23:22:00,
2013-07-25 16:32:00,89.0,-99.9,-100.00,West,279,3.0,3.0,0,0.00,,,0.00,1095.000000,,2013-07-25 23:32:00,
2013-07-25 16:42:00,90.0,-99.9,-100.00,SSW,202,8.0,8.0,0,0.00,,,0.00,609.000000,,2013-07-25 23:42:00,
2013-07-25 17:13:00,90.0,-99.9,-100.00,SSW,202,8.0,8.0,0,0.00,,,0.00,609.000000,,2013-07-26 00:13:00,
2013-07-25 17:22:00,90.0,-99.9,-100.00,SSW,202,8.0,8.0,0,0.00,,,0.00,609.000000,,2013-07-26 00:22:00,
2013-07-25 17:33:00,90.0,-99.9,-100.00,SSW,202,8.0,8.0,0,0.00,,,0.00,609.000000,,2013-07-26 00:33:00,
2013-07-25 17:42:00,88.0,-99.9,-100.00,NNW,345,3.0,8.0,0,0.00,,,0.00,276.000000,,2013-07-26 00:42:00,
2013-07-25 18:12:00,88.0,-99.9,-100.00,NNW,345,3.0,8.0,0,0.00,,,0.00,276.000000,,2013-07-26 01:12:00,
2013-07-25 18:22:00,88.0,-99.9,-100.00,NNW,345,3.0,8.0,0,0.00,,,0.00,276.000000,,2013-07-26 01:22:00,
2013-07-25 18:33:00,88.0,-99.9,-100.00,NNW,345,3.0,8.0,0,0.00,,,0.00,276.000000,,2013-07-26 01:33:00,
2013-07-25 18:42:00,84.0,-99.9,-100.00,West,279,5.0,10.0,0,0.00,,,0.00,184.000000,,2013-07-26 01:42:00,
2013-07-25 19:02:00,84.0,-99.9,-100.00,West,279,5.0,10.0,0,0.00,,,0.00,184.000000,,2013-07-26 02:02:00,
2013-07-25 19:12:00,84.0,-99.9,-100.00,West,279,5.0,10.0,0,0.00,,,0.00,184.000000,,2013-07-26 02:12:00,
2013-07-25 19:22:00,84.0,-99.9,-100.00,West,279,5.0,10.0,0,0.00,,,0.00,184.000000,,2013-07-26 02:22:00,
2013-07-25 19:32:00,84.0,-99.9,-100.00,West,279,5.0,10.0,0,0.00,,,0.00,184.000000,,2013-07-26 02:32:00,
2013-07-25 19:42:00,76.0,-99.9,-100.00,West,279,1.0,5.0,0,0.00,,,0.00,208.000000,,2013-07-26 02:42:00,
2013-07-25 20:12:00,76.0,-99.9,-100.00,West,279,1.0,5.0,0,0.00,,,0.00,208.000000,,2013-07-26 03:12:00,
2013-07-25 20:22:00,76.0,-99.9,-100.00,West,279,1.0,5.0,0,0.00,,,0.00,208.000000,,2013-07-26 03:22:00,
2013-07-25 20:33:00,76.0,-99.9,-100.00,West,279,1.0,5.0,0,0.00,,,0.00,208.000000,,2013-07-26 03:33:00,
2013-07-25 20:42:00,74.0,-99.9,-100.00,SW,215,1.0,1.0,0,0.00,,,0.00,40.000000,,2013-07-26 03:42:00,
2013-07-25 21:02:00,74.0,-99.9,-100.00,SW,215,1.0,1.0,0,0.00,,,0.00,40.000000,,2013-07-26 04:02:00,
2013-07-25 21:12:00,74.0,-99.9,-100.00,SW,215,1.0,1.0,0,0.00,,,0.00,40.000000,,2013-07-26 04:12:00,
2013-07-25 21:23:00,74.0,-99.9,-100.00,SW,215,1.0,1.0,0,0.00,,,0.00,40.000000,,2013-07-26 04:23:00,
2013-07-25 21:32:00,74.0,-99.9,-100.00,SW,215,1.0,1.0,0,0.00,,,0.00,40.000000,,2013-07-26 04:32:00,
2013-07-25 21:42:00,68.0,-99.9,-100.00,West,279,2.0,2.0,0,0.00,,,0.00,33.000000,,2013-07-26 04:42:00,
2013-07-25 22:12:00,68.0,-99.9,-100.00,West,279,2.0,2.0,0,0.00,,,0.00,33.000000,,2013-07-26 05:12:00,
2013-07-25 22:22:00,68.0,-99.9,-100.00,West,279,2.0,2.0,0,0.00,,,0.00,33.000000,,2013-07-26 05:22:00,
2013-07-25 22:33:00,68.0,-99.9,-100.00,West,279,2.0,2.0,0,0.00,,,0.00,33.000000,,2013-07-26 05:33:00,
2013-07-25 22:42:00,66.0,-99.9,-100.00,South,172,4.0,4.0,0,0.00,,,0.00,30.000000,,2013-07-26 05:42:00,
2013-07-25 23:02:00,66.0,-99.9,-100.00,South,172,4.0,4.0,0,0.00,,,0.00,30.000000,,2013-07-26 06:02:00,
2013-07-25 23:12:00,66.0,-99.9,-100.00,South,172,4.0,4.0,0,0.00,,,0.00,30.000000,,2013-07-26 06:12:00,
2013-07-25 23:22:00,66.0,-99.9,-100.00,South,172,4.0,4.0,0,0.00,,,0.00,30.000000,,2013-07-26 06:22:00,
2013-07-25 23:33:00,66.0,-99.9,-100.00,South,172,4.0,4.0,0,0.00,,,0.00,30.000000,,2013-07-26 06:33:00,